星链-32602 (STARLINK-32602)

导读

STARLINK-32602是美国SpaceX星链星座的卫星,于2024年11月30日08:00发射升空,隶属于太空探索技术公司打造的星链互联网卫星星座项目,该项目旨在为全球提供高速低延迟卫星互联网服务,这颗卫星进一步扩充了星链星座的在轨规模,助力全球网络覆盖布局的推进。

Basic Information
目录编号:
62181
目录名称:
STARLINK-32602
国际标识:
2024-225U
轨道中心:
EARTH
卫星名称:
星链-32602
卫星全名:
星链-32602 (STARLINK-32602)
卫星状态:
在轨 (已飞行562 天)
发射日期:
2024-11-30 UTC
国别 :
美国 (US)
星等 :
--
Orbit Information
数据来源 国际轨道数据 AOE轨道数据
星历时间 2026-06-14T22:50:46+0800
14小时前
查看轨道信息
2026-06-15T05:00:00+0800
8小时前
查看轨道信息
半长轴 6950.097km 6950.064km
偏心率 0.0003307 0.0003312
轨道倾角 70.002° 69.999°
近地点辐角 266.907° 272.454°
升交点赤经 270.072° 269.425°
平近点角 93.171° 30.338°
近地点 569.661km 569.625km
远地点 574.259km 574.229km
周期 96.105分钟 96.104分钟
每日圈数 14.983611 14.983719
Detailed Information
固有亮度:
5
最大亮度:
2.5
卫星平台:
Starlink V1.0
覆盖范围:
全球
运营商:
太空探索技术公司
运营商所在国:
美国
制造商(研发单位):
太空探索技术公司
制造商所在国:
美国
使用方式:
暂无
Satellite Introduction
Starlink 计划是 SpaceX 推出的全球卫星互联网项目,通过发射低轨道卫星,为全球尤其是偏远地区提供高速、低延迟的互联网服务。自 2019 年起,Starlink 已部署数千颗卫星,旨在缩小全球数字鸿沟,推动互联网普及。该项目还为军事、航空等行业提供通信支持,带来广泛经济效益。
2D Orbit Map
3D Orbit Map
Orbit Altitude Analysis Chart
Orbit Inclination Analysis Chart
Orbit Comprehensive Analysis Chart
View Comprehensive Chart